sat.trackr.live / text

‹ back to catalog

STARLINK-32936

NORAD 63147 · 2025-043R

PAYLOAD ACTIVE UNKNOWN

§ Identity

Operator
Country
US
Launch date
2025-03-03
Launch site
AFETR
Launch vehicle
Mass (kg)
RCS (m²)

Purposes: comms

External: N2YO · Heavens-Above · Gunter

§ Orbital elements

Epoch: 2026-09-20T17:45:59.825664Z

Period
94.27 min
Inclination
43.0037°
Eccentricity
0.0003040
Mean motion
15.27589627 rev/d
Perigee alt
480.9 km
Apogee alt
485.1 km
Semi-major
6,861.2 km
B*
4.9145e-4
RAAN
1.5427°
Arg perigee
21.1393°
Mean anomaly
338.9584°
Rev number
8,711

§ Raw data

STARLINK-329361 63147U 25043R   26263.74027576  .00013290  00000+0  49145-3 0  99922 63147  43.0037   1.5427 0003040  21.1393 338.9584 15.27589627 87114

JSON: /api/v1/satellites/63147 · /tle

For live sub-satellite position, see the globe view (requires WebGL).

§ Visibility from observer

Set your observer location to see the next 7 days of passes ≥ 10°. The values pass through the URL so the page stays shareable.

No JS? Fill the form by hand. The geolocation button needs JavaScript.